^^
Datos históricos de la estación: Murcia-Puente Tocinos
Diario Informe para Junio 5, 2019 Unidades:  Métrico    Inglés   Ambas
Diario Semanal Mensual Anual Configurable
  Máximo: Mínimo: Media:
Temperatura: 29.1 °C 18.5 °C 24 °C
Punto de rocio: 15.4 °C 0.0 °C 7.8 °C
Humedad: 80% 16% 43%
Velocidad viento: 27.0km/h 0.0km/h 10.8km/h
Racha viento: 50.0km/h - -
Viento- - West
Presión: 1011.0 hPa 1005.1 hPa -
Precipitación: 0.0 mm    
Historical Graphs
 
 
Tabla de datos para Junio 5, 2019
Hora Temperatura Punto de rocio Presión Viento Velocidad viento Racha viento Humedad Intensidad lluvia(por hora) Nubes
00:04 20.7 °C 12.4 °C 1006.8 hPa WNW 5.0 km/h 7.4 km/h 59% 0.0 mm CLR
00:09 20.7 °C 12.7 °C 1006.8 hPa North 4.7 km/h 7.4 km/h 60% 0.0 mm CLR
00:14 20.6 °C 12.6 °C 1006.8 hPa ENE 4.7 km/h 7.4 km/h 60% 0.0 mm CLR
00:19 20.6 °C 12.6 °C 1006.8 hPa WSW 5.0 km/h 9.3 km/h 60% 0.0 mm CLR
00:24 20.7 °C 12.9 °C 1006.8 hPa SE 5.0 km/h 7.4 km/h 61% 0.0 mm CLR
00:29 20.8 °C 13.0 °C 1006.8 hPa South 4.7 km/h 7.4 km/h 61% 0.0 mm CLR
00:34 21.0 °C 13.2 °C 1006.7 hPa WSW 4.7 km/h 13.0 km/h 61% 0.0 mm CLR
00:39 21.1 °C 13.6 °C 1006.7 hPa SW 5.8 km/h 11.1 km/h 62% 0.0 mm CLR
00:44 21.1 °C 13.8 °C 1006.7 hPa SSW 5.8 km/h 11.1 km/h 63% 0.0 mm CLR
00:49 21.0 °C 13.9 °C 1006.6 hPa SSW 9.5 km/h 14.8 km/h 64% 0.0 mm CLR
00:54 21.0 °C 13.9 °C 1006.6 hPa SSW 9.5 km/h 14.8 km/h 64% 0.0 mm CLR
00:59 20.9 °C 13.8 °C 1006.6 hPa SSW 11.1 km/h 13.0 km/h 64% 0.0 mm CLR
01:04 20.9 °C 14.1 °C 1006.5 hPa SSW 11.1 km/h 11.1 km/h 65% 0.0 mm CLR
01:09 20.9 °C 14.1 °C 1006.5 hPa WSW 8.4 km/h 13.0 km/h 65% 0.0 mm CLR
01:14 20.8 °C 14.2 °C 1006.5 hPa SW 8.4 km/h 11.1 km/h 66% 0.0 mm CLR
01:19 20.8 °C 14.2 °C 1006.3 hPa SSW 8.4 km/h 11.1 km/h 66% 0.0 mm CLR
01:24 20.7 °C 14.1 °C 1006.3 hPa SSW 8.4 km/h 7.4 km/h 66% 0.0 mm CLR
01:29 20.7 °C 14.1 °C 1006.3 hPa SW 5.8 km/h 5.6 km/h 66% 0.0 mm CLR
01:34 20.7 °C 14.1 °C 1006.2 hPa NW 5.8 km/h 7.4 km/h 66% 0.0 mm CLR
01:39 20.6 °C 14.0 °C 1006.2 hPa NW 3.2 km/h 5.6 km/h 66% 0.0 mm CLR
01:44 20.4 °C 14.1 °C 1006.2 hPa NW 3.2 km/h 5.6 km/h 67% 0.0 mm CLR
01:49 20.1 °C 14.0 °C 1006.2 hPa NNW 4.7 km/h 7.4 km/h 68% 0.0 mm CLR
01:54 19.9 °C 14.1 °C 1006.2 hPa NW 4.7 km/h 7.4 km/h 69% 0.0 mm CLR
01:59 19.8 °C 14.2 °C 1006.2 hPa NW 4.7 km/h 5.8 km/h 70% 0.0 mm CLR
02:04 19.7 °C 14.1 °C 1006.0 hPa NW 4.7 km/h 5.6 km/h 70% 0.0 mm CLR
02:09 19.6 °C 14.2 °C 1006.0 hPa WNW 4.7 km/h 7.4 km/h 71% 0.0 mm CLR
02:14 19.6 °C 14.4 °C 1006.0 hPa West 4.7 km/h 8.4 km/h 72% 0.0 mm CLR
02:19 19.6 °C 14.6 °C 1006.1 hPa West 4.7 km/h 5.0 km/h 73% 0.0 mm CLR
02:24 19.6 °C 14.6 °C 1006.1 hPa WSW 4.7 km/h 5.8 km/h 73% 0.0 mm CLR
02:29 19.6 °C 15.1 °C 1006.1 hPa WSW 3.9 km/h 7.4 km/h 75% 0.0 mm CLR
02:34 19.6 °C 15.1 °C 1006.2 hPa WNW 3.9 km/h 7.4 km/h 75% 0.0 mm CLR
02:39 19.6 °C 15.3 °C 1006.2 hPa WNW 3.2 km/h 7.4 km/h 76% 0.0 mm CLR
02:44 19.5 °C 14.9 °C 1006.2 hPa WNW 3.2 km/h 11.1 km/h 75% 0.0 mm CLR
02:49 19.5 °C 14.6 °C 1006.0 hPa WSW 6.4 km/h 11.1 km/h 73% 0.0 mm CLR
02:54 19.6 °C 14.4 °C 1006.0 hPa WSW 6.4 km/h 11.1 km/h 72% 0.0 mm CLR
02:59 19.7 °C 14.3 °C 1006.0 hPa SW 7.6 km/h 9.3 km/h 71% 0.0 mm CLR
03:04 19.8 °C 14.2 °C 1005.9 hPa SW 7.6 km/h 7.4 km/h 70% 0.0 mm CLR
03:09 19.8 °C 14.2 °C 1005.9 hPa SSW 5.8 km/h 5.6 km/h 70% 0.0 mm CLR
03:14 19.8 °C 14.2 °C 1005.9 hPa SSW 5.8 km/h 14.8 km/h 70% 0.0 mm CLR
03:19 19.8 °C 14.2 °C 1005.8 hPa SW 6.9 km/h 9.5 km/h 70% 0.0 mm CLR
03:24 19.7 °C 14.1 °C 1005.8 hPa SW 6.9 km/h 11.1 km/h 70% 0.0 mm CLR
03:29 19.7 °C 14.1 °C 1005.8 hPa WSW 6.9 km/h 7.4 km/h 70% 0.0 mm CLR
03:34 19.7 °C 13.8 °C 1005.5 hPa WSW 6.9 km/h 9.3 km/h 69% 0.0 mm CLR
03:39 19.7 °C 13.8 °C 1005.5 hPa SW 5.8 km/h 7.4 km/h 69% 0.0 mm CLR
03:44 19.6 °C 13.8 °C 1005.5 hPa WSW 5.8 km/h 7.4 km/h 69% 0.0 mm CLR
03:49 19.7 °C 13.8 °C 1005.5 hPa WSW 4.7 km/h 7.4 km/h 69% 0.0 mm CLR
03:54 19.6 °C 13.8 °C 1005.5 hPa NW 4.7 km/h 7.4 km/h 69% 0.0 mm CLR
03:59 19.6 °C 14.0 °C 1005.5 hPa WNW 3.9 km/h 5.6 km/h 70% 0.0 mm CLR
04:04 19.4 °C 14.0 °C 1005.4 hPa WNW 3.9 km/h   71% 0.0 mm CLR
04:09 19.4 °C 14.0 °C 1005.4 hPa West 2.3 km/h 6.4 km/h 71% 0.0 mm CLR
04:14 19.3 °C 14.1 °C 1005.4 hPa West 2.3 km/h 3.7 km/h 72% 0.0 mm CLR
04:19 19.3 °C 14.1 °C 1005.2 hPa West 2.9 km/h   72% 0.0 mm CLR
04:24 19.2 °C 14.1 °C 1005.2 hPa West 2.9 km/h 5.8 km/h 72% 0.0 mm CLR
04:29 19.2 °C 14.1 °C 1005.2 hPa West 3.2 km/h 5.6 km/h 72% 0.0 mm CLR
04:34 19.2 °C 14.1 °C 1005.3 hPa West 3.2 km/h 7.4 km/h 72% 0.0 mm CLR
04:39 19.2 °C 14.1 °C 1005.3 hPa WSW 3.2 km/h 3.7 km/h 72% 0.0 mm CLR
04:44 19.2 °C 14.1 °C 1005.3 hPa SSW 3.2 km/h 7.4 km/h 72% 0.0 mm CLR
04:49 19.2 °C 14.1 °C 1005.1 hPa SSW 3.2 km/h 7.4 km/h 72% 0.0 mm CLR
04:54 19.2 °C 14.1 °C 1005.1 hPa SSW 3.2 km/h 9.3 km/h 72% 0.0 mm CLR
04:59 19.1 °C 14.2 °C 1005.1 hPa SSE 5.8 km/h 7.4 km/h 73% 0.0 mm CLR
05:04 19.1 °C 14.2 °C 1005.3 hPa SSE 5.8 km/h 11.1 km/h 73% 0.0 mm CLR
05:09 18.9 °C 14.2 °C 1005.3 hPa South 7.6 km/h 8.4 km/h 74% 0.0 mm CLR
05:14 18.9 °C 14.4 °C 1005.3 hPa SSW 7.6 km/h 7.4 km/h 75% 0.0 mm CLR
05:19 18.9 °C 14.4 °C 1005.3 hPa South 5.8 km/h 8.4 km/h 75% 0.0 mm CLR
05:24 18.9 °C 14.6 °C 1005.3 hPa SSW 5.8 km/h 7.4 km/h 76% 0.0 mm CLR
05:29 19.0 °C 14.7 °C 1005.3 hPa SSW 6.4 km/h 7.4 km/h 76% 0.0 mm CLR
05:34 19.0 °C 14.7 °C 1005.1 hPa SSW 6.4 km/h 7.4 km/h 76% 0.0 mm CLR
05:39 19.0 °C 14.7 °C 1005.1 hPa SW 5.0 km/h 5.6 km/h 76% 0.0 mm CLR
05:44 19.1 °C 14.8 °C 1005.1 hPa WNW 5.0 km/h 5.8 km/h 76% 0.0 mm CLR
05:49 19.1 °C 14.8 °C 1005.2 hPa West 3.9 km/h 7.4 km/h 76% 0.0 mm CLR
05:54 19.0 °C 14.7 °C 1005.2 hPa WSW 3.9 km/h 7.4 km/h 76% 0.0 mm CLR
05:59 18.9 °C 14.8 °C 1005.2 hPa South 5.0 km/h 7.4 km/h 77% 0.0 mm CLR
06:04 18.9 °C 14.6 °C 1005.1 hPa South 5.0 km/h 9.5 km/h 76% 0.0 mm CLR
06:09 18.9 °C 14.8 °C 1005.1 hPa SSW 5.8 km/h 11.1 km/h 77% 0.0 mm CLR
06:14 18.8 °C 14.9 °C 1005.1 hPa SSW 5.8 km/h 13.0 km/h 78% 0.0 mm CLR
06:19 18.8 °C 15.1 °C 1005.2 hPa SW 8.4 km/h 13.0 km/h 79% 0.0 mm CLR
06:24 18.7 °C 14.8 °C 1005.2 hPa SW 8.4 km/h 9.3 km/h 78% 0.0 mm CLR
06:29 18.7 °C 14.8 °C 1005.2 hPa SW 6.9 km/h 7.4 km/h 78% 0.0 mm CLR
06:34 18.7 °C 14.8 °C 1005.1 hPa SSW 6.9 km/h 11.1 km/h 78% 0.0 mm CLR
06:39 18.6 °C 14.9 °C 1005.1 hPa SSW 5.8 km/h 8.7 km/h 79% 0.0 mm CLR
06:44 18.6 °C 14.9 °C 1005.1 hPa SSW 5.8 km/h 9.3 km/h 79% 0.0 mm CLR
06:49 18.6 °C 15.1 °C 1005.2 hPa WSW 7.6 km/h 9.3 km/h 80% 0.0 mm CLR
06:54 18.5 °C 15.0 °C 1005.2 hPa SW 7.6 km/h 10.3 km/h 80% 0.0 mm CLR
06:59 18.6 °C 15.1 °C 1005.2 hPa WSW 6.9 km/h 5.0 km/h 80% 0.0 mm CLR
07:04 18.6 °C 15.1 °C 1005.4 hPa WSW 6.9 km/h 9.3 km/h 80% 0.0 mm CLR
07:09 18.6 °C 15.1 °C 1005.4 hPa West 6.4 km/h 9.3 km/h 80% 0.0 mm CLR
07:14 18.6 °C 15.1 °C 1005.4 hPa WSW 6.4 km/h 7.4 km/h 80% 0.0 mm CLR
07:19 18.6 °C 15.1 °C 1005.5 hPa WSW 6.4 km/h 10.0 km/h 80% 0.0 mm CLR
07:24 18.7 °C 15.2 °C 1005.5 hPa SW 6.4 km/h 7.4 km/h 80% 0.0 mm CLR
07:29 18.7 °C 15.0 °C 1005.5 hPa SW 6.9 km/h 11.1 km/h 79% 0.0 mm CLR
07:34 18.7 °C 15.0 °C 1005.6 hPa SW 6.9 km/h 5.0 km/h 79% 0.0 mm CLR
07:39 18.8 °C 15.1 °C 1005.6 hPa SSW 5.0 km/h 7.4 km/h 79% 0.0 mm CLR
07:44 18.9 °C 15.2 °C 1005.6 hPa SW 5.0 km/h 7.4 km/h 79% 0.0 mm CLR
07:49 19.0 °C 15.3 °C 1005.8 hPa SW 4.7 km/h 7.4 km/h 79% 0.0 mm CLR
07:54 19.2 °C 15.4 °C 1005.8 hPa SSW 4.7 km/h 7.4 km/h 79% 0.0 mm CLR
07:59 19.3 °C 15.4 °C 1005.8 hPa SSW 3.9 km/h 9.3 km/h 78% 0.0 mm CLR
08:04 19.5 °C 15.3 °C 1005.8 hPa West 3.9 km/h 7.4 km/h 77% 0.0 mm CLR
08:09 19.6 °C 15.4 °C 1005.8 hPa WSW 5.0 km/h 6.9 km/h 77% 0.0 mm CLR
08:14 19.7 °C 15.3 °C 1005.8 hPa SSE 5.0 km/h 9.5 km/h 76% 0.0 mm CLR
08:19 19.9 °C 15.3 °C 1005.9 hPa SSW 4.7 km/h 12.2 km/h 75% 0.0 mm CLR
08:24 19.7 °C 15.2 °C 1005.9 hPa SSW 4.7 km/h 11.1 km/h 75% 0.0 mm CLR
08:29 19.6 °C 15.1 °C 1005.9 hPa SSW 8.4 km/h 14.8 km/h 75% 0.0 mm CLR
08:34 19.6 °C 15.1 °C 1006.0 hPa WSW 8.4 km/h 13.0 km/h 75% 0.0 mm CLR
08:39 19.7 °C 15.2 °C 1006.0 hPa SSW 9.5 km/h 14.8 km/h 75% 0.0 mm CLR
08:44 19.7 °C 15.2 °C 1006.0 hPa SW 9.5 km/h 13.0 km/h 75% 0.0 mm CLR
08:49 19.8 °C 15.1 °C 1006.1 hPa SW 9.5 km/h 11.1 km/h 74% 0.0 mm CLR
08:54 19.8 °C 15.1 °C 1006.1 hPa SW 9.5 km/h 14.8 km/h 74% 0.0 mm CLR
08:59 19.9 °C 14.9 °C 1006.1 hPa SW 8.4 km/h 11.1 km/h 73% 0.0 mm CLR
09:04 20.2 °C 15.0 °C 1006.4 hPa South 8.4 km/h 11.1 km/h 72% 0.0 mm CLR
09:09 20.5 °C 15.3 °C 1006.4 hPa SE 7.6 km/h 7.6 km/h 72% 0.0 mm CLR
09:14 20.8 °C 15.3 °C 1006.4 hPa SE 7.6 km/h 9.3 km/h 71% 0.0 mm CLR
09:19 21.1 °C 15.2 °C 1006.6 hPa South 5.0 km/h 9.3 km/h 69% 0.0 mm CLR
09:24 21.3 °C 14.9 °C 1006.6 hPa South 5.0 km/h 7.4 km/h 67% 0.0 mm CLR
09:29 21.4 °C 14.8 °C 1006.6 hPa SE 5.0 km/h 5.8 km/h 66% 0.0 mm CLR
09:34 21.7 °C 14.6 °C 1006.4 hPa SSE 5.0 km/h 11.1 km/h 64% 0.0 mm CLR
09:39 21.9 °C 14.6 °C 1006.4 hPa ESE 5.8 km/h 7.4 km/h 63% 0.0 mm CLR
09:44 22.2 °C 14.8 °C 1006.4 hPa South 5.8 km/h 7.4 km/h 63% 0.0 mm CLR
09:49 22.6 °C 14.9 °C 1006.6 hPa SSE 4.7 km/h 3.7 km/h 62% 0.0 mm CLR
09:54 22.9 °C 14.7 °C 1006.6 hPa SSW 4.7 km/h 5.6 km/h 60% 0.0 mm CLR
09:59 23.2 °C 14.7 °C 1006.6 hPa North 2.9 km/h 3.7 km/h 59% 0.0 mm CLR
10:04 23.8 °C 14.8 °C 1006.6 hPa North 2.9 km/h 3.2 km/h 57% 0.0 mm CLR
10:09 24.4 °C 14.8 °C 1006.6 hPa North 2.3 km/h   55% 0.0 mm CLR
10:14 24.8 °C 14.0 °C 1006.6 hPa WSW 2.3 km/h 16.1 km/h 51% 0.0 mm CLR
10:19 25.2 °C 12.8 °C 1006.5 hPa West 8.4 km/h 20.4 km/h 46% 0.0 mm CLR
10:24 25.5 °C 12.3 °C 1006.5 hPa West 8.4 km/h 21.7 km/h 44% 0.0 mm CLR
10:29 25.7 °C 12.2 °C 1006.5 hPa WNW 13.0 km/h 25.9 km/h 43% 0.0 mm CLR
10:34 25.8 °C 12.3 °C 1006.4 hPa West 13.0 km/h 24.1 km/h 43% 0.0 mm CLR
10:39 25.9 °C 12.0 °C 1006.4 hPa WNW 17.2 km/h 24.1 km/h 42% 0.0 mm CLR
10:44 26.1 °C 11.8 °C 1006.4 hPa West 17.2 km/h 22.2 km/h 41% 0.0 mm CLR
10:49 26.3 °C 11.2 °C 1006.4 hPa WNW 13.0 km/h 18.5 km/h 39% 0.0 mm CLR
10:54 26.6 °C 10.7 °C 1006.4 hPa WSW 13.0 km/h 24.1 km/h 37% 0.0 mm CLR
10:59 26.7 °C 10.4 °C 1006.4 hPa NW 13.0 km/h 22.2 km/h 36% 0.0 mm CLR
11:04 26.9 °C 10.2 °C 1006.4 hPa West 13.0 km/h 22.2 km/h 35% 0.0 mm CLR
11:09 27.0 °C 9.3 °C 1006.4 hPa WNW 13.7 km/h 23.3 km/h 33% 0.0 mm CLR
11:14 26.9 °C 8.8 °C 1006.4 hPa NW 13.7 km/h 25.9 km/h 32% 0.0 mm CLR
11:19 26.8 °C 8.3 °C 1006.6 hPa NW 18.0 km/h 33.3 km/h 31% 0.0 mm CLR
11:24 26.9 °C 8.3 °C 1006.6 hPa WNW 18.0 km/h 25.9 km/h 31% 0.0 mm CLR
11:29 27.1 °C 8.0 °C 1006.6 hPa West 17.2 km/h 29.6 km/h 30% 0.0 mm CLR
11:34 27.1 °C 7.6 °C 1006.8 hPa West 17.2 km/h 22.2 km/h 29% 0.0 mm CLR
11:39 27.3 °C 7.2 °C 1006.8 hPa WSW 16.4 km/h 25.9 km/h 28% 0.0 mm CLR
11:44 27.3 °C 7.7 °C 1006.8 hPa WNW 16.4 km/h 30.6 km/h 29% 0.0 mm CLR
11:49 27.2 °C 7.6 °C 1006.9 hPa NW 15.6 km/h 25.9 km/h 29% 0.0 mm CLR
11:54 27.2 °C 8.1 °C 1006.9 hPa NW 15.6 km/h 29.6 km/h 30% 0.0 mm CLR
11:59 27.1 °C 7.6 °C 1006.9 hPa NNW 20.1 km/h 35.2 km/h 29% 0.0 mm CLR
12:04 27.1 °C 8.0 °C 1007.1 hPa NNW 20.1 km/h 32.3 km/h 30% 0.0 mm CLR
12:09 27.0 °C 7.4 °C 1007.1 hPa North 21.7 km/h 37.0 km/h 29% 0.0 mm CLR
12:14 26.7 °C 6.7 °C 1007.1 hPa NW 21.7 km/h 38.9 km/h 28% 0.0 mm CLR
12:19 26.7 °C 6.7 °C 1007.1 hPa NW 21.7 km/h 42.6 km/h 28% 0.0 mm CLR
12:24 26.9 °C 6.8 °C 1007.1 hPa West 21.7 km/h 33.3 km/h 28% 0.0 mm CLR
12:29 26.7 °C 6.2 °C 1007.1 hPa NW 23.3 km/h 35.2 km/h 27% 0.0 mm CLR
12:34 26.9 °C 6.3 °C 1007.3 hPa NNW 23.3 km/h 24.1 km/h 27% 0.0 mm CLR
12:39 27.0 °C 5.8 °C 1007.3 hPa NW 20.9 km/h 38.9 km/h 26% 0.0 mm CLR
12:44 26.8 °C 5.7 °C 1007.3 hPa WNW 20.9 km/h 40.7 km/h 26% 0.0 mm CLR
12:49 26.8 °C 5.1 °C 1007.4 hPa NW 23.7 km/h 33.3 km/h 25% 0.0 mm CLR
12:54 26.8 °C 4.6 °C 1007.4 hPa NW 23.7 km/h 46.3 km/h 24% 0.0 mm CLR
12:59 26.8 °C 4.6 °C 1007.4 hPa West 23.7 km/h 37.0 km/h 24% 0.0 mm CLR
13:04 26.8 °C 3.9 °C 1007.4 hPa WNW 23.7 km/h 40.7 km/h 23% 0.0 mm CLR
13:09 26.7 °C 3.8 °C 1007.4 hPa WNW 25.1 km/h 50.0 km/h 23% 0.0 mm CLR
13:14 26.8 °C 3.3 °C 1007.4 hPa West 25.1 km/h 37.0 km/h 22% 0.0 mm CLR
13:19 26.9 °C 2.7 °C 1007.6 hPa West 23.7 km/h 46.3 km/h 21% 0.0 mm CLR
13:24 26.9 °C 2.7 °C 1007.6 hPa WSW 23.7 km/h 35.2 km/h 21% 0.0 mm CLR
13:29 27.3 °C 3.1 °C 1007.6 hPa WNW 23.7 km/h 33.3 km/h 21% 0.0 mm CLR
13:34 27.3 °C 2.3 °C 1007.6 hPa WNW 23.7 km/h 29.6 km/h 20% 0.0 mm CLR
13:39 27.3 °C 2.3 °C 1007.6 hPa WNW 23.3 km/h 24.1 km/h 20% 0.0 mm CLR
13:44 27.4 °C 1.7 °C 1007.6 hPa West 23.3 km/h 24.5 km/h 19% 0.0 mm CLR
13:49 27.3 °C 1.7 °C 1007.6 hPa WNW 16.1 km/h 22.2 km/h 19% 0.0 mm CLR
13:54 27.4 °C 0.9 °C 1007.6 hPa WSW 16.1 km/h 35.2 km/h 18% 0.0 mm CLR
13:59 27.3 °C 0.9 °C 1007.6 hPa NW 22.0 km/h 31.5 km/h 18% 0.0 mm CLR
14:04 27.2 °C 0.8 °C 1007.8 hPa WNW 22.0 km/h 33.3 km/h 18% 0.0 mm CLR
14:09 27.3 °C 0.1 °C 1007.8 hPa NW 23.3 km/h 42.6 km/h 17% 0.0 mm CLR
14:14 27.4 °C 0.9 °C 1007.8 hPa NW 23.3 km/h 29.6 km/h 18% 0.0 mm CLR
14:19 27.6 °C 1.1 °C 1007.9 hPa West 22.5 km/h 33.3 km/h 18% 0.0 mm CLR
14:24 27.8 °C 1.3 °C 1007.9 hPa NW 22.5 km/h 27.8 km/h 18% 0.0 mm CLR
14:29 27.5 °C 0.3 °C 1007.9 hPa NW 20.1 km/h 32.8 km/h 17% 0.0 mm CLR
14:34 27.2 °C 0.8 °C 1007.9 hPa WNW 20.1 km/h 35.2 km/h 18% 0.0 mm CLR
14:39 27.0 °C 0.7 °C 1007.9 hPa West 22.5 km/h 46.3 km/h 18% 0.0 mm CLR
14:44 26.9 °C 0.6 °C 1007.9 hPa NW 22.5 km/h 31.5 km/h 18% 0.0 mm CLR
14:49 27.1 °C 0.7 °C 1008.0 hPa WNW 22.0 km/h 38.9 km/h 18% 0.0 mm CLR
14:54 27.3 °C 0.9 °C 1008.0 hPa NW 22.0 km/h 37.0 km/h 18% 0.0 mm CLR
14:59 27.4 °C 0.9 °C 1008.0 hPa WNW 25.1 km/h 35.2 km/h 18% 0.0 mm CLR
15:04 27.2 °C 0.0 °C 1007.8 hPa WNW 25.1 km/h 40.7 km/h 17% 0.0 mm CLR
15:09 27.2 °C 0.0 °C 1007.8 hPa NW 27.0 km/h 33.3 km/h 17% 0.0 mm CLR
15:14 27.4 °C 0.9 °C 1007.8 hPa WNW 27.0 km/h 33.3 km/h 18% 0.0 mm CLR
15:19 27.4 °C 0.9 °C 1007.9 hPa NW 22.0 km/h 27.8 km/h 18% 0.0 mm CLR
15:24 27.3 °C 0.1 °C 1007.9 hPa WNW 22.0 km/h 38.9 km/h 17% 0.0 mm CLR
15:29 27.1 °C 0.7 °C 1007.9 hPa NW 22.5 km/h 31.5 km/h 18% 0.0 mm CLR
15:34 27.2 °C 0.8 °C 1007.8 hPa WNW 22.5 km/h 33.3 km/h 18% 0.0 mm CLR
15:39 27.3 °C 0.9 °C 1007.8 hPa WNW 20.1 km/h 37.8 km/h 18% 0.0 mm CLR
15:44 27.4 °C 0.2 °C 1007.8 hPa WNW 20.1 km/h 38.9 km/h 17% 0.0 mm CLR
15:49 27.6 °C 1.1 °C 1007.8 hPa WNW 22.5 km/h 33.3 km/h 18% 0.0 mm CLR
15:54 27.8 °C 1.3 °C 1007.8 hPa West 22.5 km/h 25.6 km/h 18% 0.0 mm CLR
15:59 28.1 °C 0.7 °C 1007.8 hPa NNW 17.2 km/h 33.3 km/h 17% 0.0 mm CLR
16:04 28.3 °C 0.1 °C 1007.8 hPa WNW 17.2 km/h 31.5 km/h 16% 0.0 mm CLR
16:09 28.2 °C 0.8 °C 1007.8 hPa WNW 19.8 km/h 22.2 km/h 17% 0.0 mm CLR
16:14 28.3 °C 0.9 °C 1007.8 hPa NNE 19.8 km/h 33.3 km/h 17% 0.0 mm CLR
16:19 28.4 °C 1.0 °C 1007.7 hPa WNW 19.0 km/h 29.6 km/h 17% 0.0 mm CLR
16:24 28.2 °C 0.8 °C 1007.7 hPa WNW 19.0 km/h 37.0 km/h 17% 0.0 mm CLR
16:29 28.2 °C 1.6 °C 1007.7 hPa NNW 22.0 km/h 27.8 km/h 18% 0.0 mm CLR
16:34 28.2 °C 1.6 °C 1007.6 hPa West 22.0 km/h 42.6 km/h 18% 0.0 mm CLR
16:39 28.4 °C 1.8 °C 1007.6 hPa WNW 20.9 km/h 33.5 km/h 18% 0.0 mm CLR
16:44 28.3 °C 0.9 °C 1007.6 hPa NW 20.9 km/h 33.5 km/h 17% 0.0 mm CLR
16:49 28.3 °C 0.9 °C 1007.6 hPa WNW 23.7 km/h 35.2 km/h 17% 0.0 mm CLR
16:54 28.4 °C 1.0 °C 1007.6 hPa NW 23.7 km/h 29.8 km/h 17% 0.0 mm CLR
16:59 28.3 °C 0.9 °C 1007.6 hPa West 22.5 km/h 33.3 km/h 17% 0.0 mm CLR
17:04 28.5 °C 1.1 °C 1007.7 hPa NNW 22.5 km/h 29.6 km/h 17% 0.0 mm CLR
17:09 28.6 °C 1.2 °C 1007.7 hPa NW 18.0 km/h 27.8 km/h 17% 0.0 mm CLR
17:14 28.6 °C 1.2 °C 1007.7 hPa NNW 18.0 km/h 25.9 km/h 17% 0.0 mm CLR
17:19 28.7 °C 1.2 °C 1007.7 hPa WNW 17.2 km/h 22.2 km/h 17% 0.0 mm CLR
17:24 28.6 °C 1.2 °C 1007.7 hPa WNW 17.2 km/h 25.9 km/h 17% 0.0 mm CLR
17:29 28.5 °C 1.1 °C 1007.7 hPa North 16.4 km/h 35.2 km/h 17% 0.0 mm CLR
17:34 28.4 °C 1.0 °C 1007.7 hPa WNW 16.4 km/h 18.5 km/h 17% 0.0 mm CLR
17:39 28.8 °C 1.3 °C 1007.7 hPa WSW 14.8 km/h 14.8 km/h 17% 0.0 mm CLR
17:44 28.9 °C 1.4 °C 1007.7 hPa WNW 14.8 km/h 20.9 km/h 17% 0.0 mm CLR
17:49 28.8 °C 1.3 °C 1007.8 hPa NW 13.7 km/h 22.2 km/h 17% 0.0 mm CLR
17:54 28.7 °C 0.4 °C 1007.8 hPa NW 13.7 km/h 25.9 km/h 16% 0.0 mm CLR
17:59 28.6 °C 1.2 °C 1007.8 hPa North 12.2 km/h 20.4 km/h 17% 0.0 mm CLR
18:04 28.6 °C 1.9 °C 1007.8 hPa WNW 12.2 km/h 17.2 km/h 18% 0.0 mm CLR
18:09 28.8 °C 2.1 °C 1007.8 hPa NW 13.0 km/h 24.1 km/h 18% 0.0 mm CLR
18:14 29.1 °C 1.6 °C 1007.8 hPa WNW 13.0 km/h 25.9 km/h 17% 0.0 mm CLR
18:19 28.8 °C 1.3 °C 1007.9 hPa West 13.7 km/h 13.0 km/h 17% 0.0 mm CLR
18:24 28.7 °C 1.2 °C 1007.9 hPa WNW 13.7 km/h 16.7 km/h 17% 0.0 mm CLR
18:29 28.7 °C 2.0 °C 1007.9 hPa West 9.5 km/h 20.4 km/h 18% 0.0 mm CLR
18:34 28.5 °C 1.9 °C 1008.0 hPa NNW 9.5 km/h 21.7 km/h 18% 0.0 mm CLR
18:39 28.3 °C 1.7 °C 1008.0 hPa NNW 13.7 km/h 18.5 km/h 18% 0.0 mm CLR
18:44 28.3 °C 2.4 °C 1008.0 hPa WNW 13.7 km/h 11.1 km/h 19% 0.0 mm CLR
18:49 28.3 °C 1.7 °C 1008.0 hPa WNW 10.0 km/h 18.0 km/h 18% 0.0 mm CLR
18:54 28.3 °C 1.7 °C 1008.0 hPa NNW 10.0 km/h 14.8 km/h 18% 0.0 mm CLR
18:59 28.3 °C 0.9 °C 1008.0 hPa NW 12.2 km/h 16.7 km/h 17% 0.0 mm CLR
19:04 28.3 °C 1.7 °C 1008.1 hPa WNW 12.2 km/h 22.2 km/h 18% 0.0 mm CLR
19:09 28.1 °C 1.6 °C 1008.1 hPa WNW 14.0 km/h 20.4 km/h 18% 0.0 mm CLR
19:14 28.1 °C 1.6 °C 1008.1 hPa NW 14.0 km/h 13.0 km/h 18% 0.0 mm CLR
19:19 28.0 °C 1.4 °C 1008.1 hPa NW 11.9 km/h 20.4 km/h 18% 0.0 mm CLR
19:24 27.9 °C 1.4 °C 1008.1 hPa NW 11.9 km/h 14.0 km/h 18% 0.0 mm CLR
19:29 27.9 °C 1.4 °C 1008.1 hPa NW 11.1 km/h 18.5 km/h 18% 0.0 mm CLR
19:34 27.9 °C 1.4 °C 1008.2 hPa NNW 11.1 km/h 25.9 km/h 18% 0.0 mm CLR
19:39 27.9 °C 1.4 °C 1008.2 hPa NNW 11.9 km/h 18.5 km/h 18% 0.0 mm CLR
19:44 27.8 °C 1.3 °C 1008.2 hPa WNW 11.9 km/h 13.0 km/h 18% 0.0 mm CLR
19:49 27.8 °C 1.3 °C 1008.2 hPa NW 10.0 km/h 18.5 km/h 18% 0.0 mm CLR
19:54 27.7 °C 1.2 °C 1008.2 hPa NW 10.0 km/h 16.7 km/h 18% 0.0 mm CLR
19:59 27.7 °C 1.9 °C 1008.2 hPa NW 11.9 km/h 18.5 km/h 19% 0.0 mm CLR
20:04 27.7 °C 1.9 °C 1008.4 hPa NW 11.9 km/h 13.0 km/h 19% 0.0 mm CLR
20:09 27.7 °C 1.9 °C 1008.4 hPa NW 10.0 km/h 13.0 km/h 19% 0.0 mm CLR
20:14 27.8 °C 2.1 °C 1008.4 hPa NW 10.0 km/h 18.5 km/h 19% 0.0 mm CLR
20:19 27.7 °C 1.2 °C 1008.4 hPa WNW 10.0 km/h 16.7 km/h 18% 0.0 mm CLR
20:24 27.6 °C 1.1 °C 1008.4 hPa NW 10.0 km/h 14.8 km/h 18% 0.0 mm CLR
20:29 27.6 °C 1.1 °C 1008.4 hPa NNW 11.9 km/h 22.2 km/h 18% 0.0 mm CLR
20:34 27.5 °C 1.8 °C 1008.6 hPa NW 11.9 km/h 11.1 km/h 19% 0.0 mm CLR
20:39 27.4 °C 1.7 °C 1008.6 hPa WNW 9.5 km/h 12.2 km/h 19% 0.0 mm CLR
20:44 27.3 °C 1.7 °C 1008.6 hPa NW 9.5 km/h 13.7 km/h 19% 0.0 mm CLR
20:49 27.2 °C 1.6 °C 1008.7 hPa NW 8.4 km/h 11.1 km/h 19% 0.0 mm CLR
20:54 27.1 °C 1.5 °C 1008.7 hPa NNW 8.4 km/h 9.3 km/h 19% 0.0 mm CLR
20:59 27.0 °C 1.4 °C 1008.7 hPa NW 7.6 km/h 14.8 km/h 19% 0.0 mm CLR
21:04 26.9 °C 1.3 °C 1008.8 hPa NNW 7.6 km/h 9.3 km/h 19% 0.0 mm CLR
21:09 26.9 °C 1.3 °C 1008.8 hPa NW 6.9 km/h 9.3 km/h 19% 0.0 mm CLR
21:14 26.8 °C 1.9 °C 1008.8 hPa NW 6.9 km/h 9.3 km/h 20% 0.0 mm CLR
21:19 26.7 °C 1.9 °C 1008.8 hPa West 5.8 km/h 7.4 km/h 20% 0.0 mm CLR
21:24 26.7 °C 1.9 °C 1008.8 hPa WNW 5.8 km/h 5.6 km/h 20% 0.0 mm CLR
21:29 26.6 °C 1.8 °C 1008.8 hPa WNW 4.7 km/h 7.6 km/h 20% 0.0 mm CLR
21:34 26.6 °C 1.8 °C 1008.9 hPa NW 4.7 km/h 9.3 km/h 20% 0.0 mm CLR
21:39 26.5 °C 1.7 °C 1008.9 hPa NW 5.8 km/h 9.3 km/h 20% 0.0 mm CLR
21:44 26.4 °C 1.6 °C 1008.9 hPa WNW 5.8 km/h 5.6 km/h 20% 0.0 mm CLR
21:49 26.3 °C 1.6 °C 1009.2 hPa NW 3.9 km/h 3.7 km/h 20% 0.0 mm CLR
21:54 26.3 °C 1.6 °C 1009.2 hPa NW 3.9 km/h 3.9 km/h 20% 0.0 mm CLR
21:59 26.2 °C 2.1 °C 1009.2 hPa NW 3.2 km/h 3.7 km/h 21% 0.0 mm CLR
22:04 26.2 °C 1.4 °C 1009.3 hPa NW 3.2 km/h 5.8 km/h 20% 0.0 mm CLR
22:09 26.1 °C 2.1 °C 1009.3 hPa WNW 2.9 km/h 7.4 km/h 21% 0.0 mm CLR
22:14 26.1 °C 1.4 °C 1009.3 hPa NW 2.9 km/h 7.4 km/h 20% 0.0 mm CLR
22:19 25.9 °C 1.2 °C 1009.6 hPa WNW 6.4 km/h 13.0 km/h 20% 0.0 mm CLR
22:24 25.8 °C 1.8 °C 1009.6 hPa NW 6.4 km/h 11.1 km/h 21% 0.0 mm CLR
22:29 25.7 °C 1.7 °C 1009.6 hPa WNW 6.4 km/h 11.1 km/h 21% 0.0 mm CLR
22:34 25.7 °C 1.7 °C 1009.9 hPa NNW 6.4 km/h 11.1 km/h 21% 0.0 mm CLR
22:39 25.6 °C 1.7 °C 1009.9 hPa WNW 7.6 km/h 14.8 km/h 21% 0.0 mm CLR
22:44 25.6 °C 1.7 °C 1009.9 hPa NW 7.6 km/h 14.8 km/h 21% 0.0 mm CLR
22:49 25.5 °C 1.6 °C 1010.1 hPa WNW 8.4 km/h 7.4 km/h 21% 0.0 mm CLR
22:54 25.4 °C 1.5 °C 1010.1 hPa WNW 8.4 km/h 9.3 km/h 21% 0.0 mm CLR
22:59 25.3 °C 1.4 °C 1010.1 hPa WNW 6.4 km/h 11.1 km/h 21% 0.0 mm CLR
23:04 25.2 °C 1.3 °C 1010.3 hPa NNW 6.4 km/h 9.3 km/h 21% 0.0 mm CLR
23:09 25.1 °C 1.9 °C 1010.3 hPa North 5.0 km/h 7.4 km/h 22% 0.0 mm CLR
23:14 24.9 °C 2.3 °C 1010.3 hPa NNE 5.0 km/h 5.8 km/h 23% 0.0 mm CLR
23:19 24.7 °C 2.2 °C 1010.6 hPa North 3.9 km/h 3.7 km/h 23% 0.0 mm CLR
23:24 24.4 °C 1.9 °C 1010.6 hPa NE 3.9 km/h   23% 0.0 mm CLR
23:29 24.3 °C 2.4 °C 1010.6 hPa Calm     24% 0.0 mm CLR
23:34 24.2 °C 2.3 °C 1010.8 hPa Calm     24% 0.0 mm CLR
23:39 24.1 °C 2.3 °C 1010.8 hPa Calm     24% 0.0 mm CLR
23:44 24.1 °C 2.3 °C 1010.8 hPa Calm   7.4 km/h 24% 0.0 mm CLR
23:49 23.9 °C 2.7 °C 1011.0 hPa West 2.9 km/h 3.7 km/h 25% 0.0 mm CLR
23:54 23.8 °C 2.0 °C 1011.0 hPa West 2.9 km/h 2.3 km/h 24% 0.0 mm CLR
23:59 23.7 °C 2.5 °C 1011.0 hPa West 2.3 km/h 3.7 km/h 25% 0.0 mm CLR
Murcia-Puente Tocinos, España
Compliments of Weather Underground - 2.75 mb

La estación de MeteoMurcia.com, publica sus datos en los siguientes proyectos:

Weather Underground PWS IMURCIAP2 Meteoclimatic www.awekas.at

W3Counter
Web Analytics